Location: Slemon Park
(46.4340°N, 63.8219°W)
Time: 14:15:31
(UTC-04:00)

Daily predictions for brighter satellites

Satellite Brightness Start Highest point End
(mag) Time Altitude Azimuth Time Altitude Azimuth Time Altitude Azimuth
Cosmos 1980 4.1 17:30:05 10° S 17:35:30 48° ESE 17:40:56 10° NE
CORIOLIS 4.1 17:30:57 10° SSE 17:36:16 72° ENE 17:41:37 10° N
ATLAS 5 CENTAUR R/B 4.0 17:34:43 10° NNW 17:37:42 14° N 17:40:49 10° NE
IDEFIX/ARIANE 42P 2.8 17:36:37 10° SSE 17:41:50 81° WSW 17:47:08 10° NNW
Abrixas 3.7 17:42:37 10° SSW 17:45:14 30° SSE 17:47:52 10° E
Cosmos 44 Rocket 3.4 17:41:36 10° SSW 17:46:44 87° ESE 17:51:47 10° NE
Lacrosse 5 rocket 1.4 17:43:26 10° NW 17:47:10 73° SW 17:51:06 10° SE
MSX 3.8 17:42:52 10° SSE 17:48:35 81° ENE 17:54:21 10° NNW
Cosmos 1763 Rocket 4.1 17:44:07 10° SW 17:49:15 58° WNW 17:54:21 10° NNE
Cosmos 372 Rocket 3.9 17:45:19 10° NNW 17:50:27 72° ENE 17:55:32 10° SSE
Timation 1 Rocket 4.4 17:44:56 10° NNW 17:50:54 57° ENE 17:56:48 10° SE
ATLAS 3B R/B 4.4 17:45:52 10° NW 17:50:56 20° N 17:55:51 10° NE
Cosmos 2219 Rocket 2.3 17:48:34 10° SSW 17:54:13 85° WNW 17:59:53 10° NNE
Aureole 2 Rocket 3.3 17:50:48 10° S 17:54:19 38° ESE 17:58:08 10° NE
USA 116 3.2 17:52:38 10° NNE 17:55:49 82° WNW 17:58:55 10° SSW
FREGAT/IRIS 4.4 17:54:55 10° E 17:56:37 14° ENE 17:58:20 10° NNE
Cosmos 2333 Rocket 2.2 17:51:04 10° SSW 17:56:43 81° ESE 18:02:24 10° NNE
Cosmos 1707 Rocket 4.3 17:54:08 10° NNE 17:57:56 29° ENE 18:01:42 10° SE
Cosmos 540 Rocket 3.5 17:53:06 10° S 17:58:13 65° ESE 18:03:21 10° NNE
USA 215 3.4 17:52:23 10° ESE 17:58:47 59° NNE 18:05:11 10° NW
COSMO-SKYMED 1 3.1 17:55:23 10° NNE 17:59:29 39° E 18:03:34 10° SSE
CZ-4C R/B 4.2 17:56:26 10° NW 18:00:45 18° N 18:05:23 10° NE
Cosmos 1626 3.5 17:58:07 10° SE 18:00:51 20° E 18:03:25 11° NE
YAOGAN 1 3.0 17:56:54 10° S 18:01:12 66° WSW 18:05:32 10° NNW
Cosmos 304 Rocket 4.5 17:57:12 10° SSE 18:01:31 34° ESE 18:05:52 10° NE
Cosmos 1328 3.7 17:58:50 10° S 18:02:46 86° E 18:06:45 10° N
Cosmos 2278 Rocket 2.6 17:58:35 10° NNW 18:04:15 71° WSW 18:09:53 10° SSE
Cosmos 2151 2.9 18:05:50 10° S 18:10:02 78° E 18:14:15 10° NNE
Cosmos 1666 Rocket 4.5 18:07:52 10° SE 18:11:29 26° E 18:15:09 10° NNE
CZ-4 R/B 3.3 18:08:39 10° SSW 18:12:10 32° W 18:15:44 10° NNW
Cosmos 1726 2.7 18:09:14 10° NNW 18:12:59 62° W 18:16:42 10° S
Cosmos 1455 3.0 18:11:10 10° NNE 18:14:31 29° ENE 18:17:53 10° SE
Resurs 01 Rocket 2.9 18:12:00 10° ESE 18:15:15 20° ENE 18:18:31 10° NNE
Lacrosse 5 3.3 18:12:22 10° WNW 18:16:33 25° N 18:19:53 14° NE
Cosmos 2279 Rocket 3.9 18:12:04 10° N 18:18:19 81° E 18:24:33 10° S
Cosmos 1703 3.6 18:15:54 10° SSE 18:19:34 41° E 18:23:16 10° NNE
SJ-6B 3.5 18:16:06 10° SE 18:19:51 35° ENE 18:23:39 10° N
Cosmos 1900 4.3 18:16:24 10° NNW 18:21:22 81° NE 18:26:23 10° SE
Meteor 1-27 4.5 18:21:58 10° NNW 18:27:48 79° W 18:33:37 10° S
SKYMED 3 4.5 18:25:15 10° NNE 18:29:38 81° ESE 18:33:58 10° SSW
Cosmos 2237 Rocket 2.4 18:25:15 10° SSW 18:30:52 73° WNW 18:36:33 10° NNE
Cosmos 2369 Rocket 3.4 18:28:02 10° N 18:32:22 22° NE 18:33:18 21° ENE
Cosmos 1151 Rocket 4.5 18:28:43 10° NNW 18:32:44 40° W 18:36:44 10° SSW
CENTAUR R/B 3.7 18:26:57 10° WSW 18:32:55 39° NW 18:39:37 10° NNE
Cosmos 1300 4.4 18:30:43 10° NNW 18:34:15 36° W 18:37:46 10° SSW
SL-16 R/B 2.2 18:32:56 10° S 18:38:30 61° ESE 18:43:04 16° NE
USA 229 DEB 4.3 18:33:08 10° S 18:39:09 34° ESE 18:42:14 24° ENE
USA 229 4.3 18:33:15 10° S 18:39:16 34° ESE 18:42:17 24° ENE
Lacrosse 4 Rocket 1.6 18:36:37 10° NNW 18:40:32 45° NE 18:42:02 30° ESE
Nadezhda 4 Rocket 4.1 18:34:51 10° SSE 18:40:55 55° E 18:47:04 10° NNE
Cosmos 44 4.0 18:37:53 10° SW 18:42:59 54° NW 18:47:02 15° NNE
Cosmos 2242 Rocket 3.8 18:39:43 10° N 18:43:58 45° ENE 18:48:13 10° SSE
DMSP B5D1-3 4.4 18:39:54 10° NNE 18:45:02 81° ESE 18:50:08 10° SSW
Cosmos 1340 Rocket 3.1 18:42:48 10° SSW 18:46:43 67° WNW 18:50:39 10° N
ALOS 2.6 18:43:03 10° SE 18:47:27 43° ENE 18:51:53 10° N
SKYMED 2 3.9 18:43:20 10° N 18:47:39 66° WNW 18:51:57 10° SSW
Spot 2 Rocket 3.8 18:43:12 10° SE 18:47:56 42° ENE 18:52:40 10° N
Cosmos 2297 4.1 18:42:23 10° NNW 18:48:03 66° WSW 18:53:43 10° SSE
Cosmos 1805 Rocket 3.6 18:45:14 10° S 18:49:42 87° W 18:54:12 10° N
FAST Rocket 3.8 18:49:26 10° S 18:52:01 78° E 18:52:03 78° E
Cosmos 1184 Rocket 3.0 18:51:26 10° S 18:54:20 52° SE 18:54:20 52° SE
Iridium 4 Rocket 3.2 18:53:36 10° SSE 18:57:51 47° E 18:58:22 44° ENE
Meteor 1-28 Rocket 3.5 18:54:52 10° N 18:58:34 63° WNW 19:02:14 10° SSW
Cosmos 1869 3.2 18:55:23 10° N 18:59:24 60° ENE 19:03:24 10° SSE
Cosmos 2058 4.3 18:55:55 10° SW 18:59:46 39° WNW 19:03:39 10° N
Cosmos 1092 Rocket 4.0 18:56:03 10° S 19:02:13 58° E 19:08:26 10° NNE
Cosmos 1538 Rocket 3.9 18:57:29 10° SSW 19:02:47 83° ESE 19:06:34 20° NNE
Cosmos 1461 2.8 18:59:16 10° SW 19:03:26 81° NW 19:04:38 45° NNE
Sich 1 3.0 19:00:32 10° S 19:04:59 88° E 19:08:50 14° N
FENGYUN 3A 3.5 19:04:28 10° SSE 19:09:47 69° ENE 19:15:09 10° N
Cosmos 923 Rocket 4.2 19:05:41 10° S 19:10:30 45° ESE 19:10:30 45° ESE
SL-19 R/B 4.2 19:07:26 10° SSE 19:13:15 87° ENE 19:18:53 10° NNW
Cosmos 1633 Rocket 3.0 19:09:26 10° S 19:13:50 85° W 19:16:41 22° N
Cosmos 1867 4.4 19:11:41 10° NNW 19:16:06 32° NNE 19:16:06 32° NNE
Cosmos 1680 Rocket 4.4 19:12:41 10° S 19:15:55 32° SE 19:15:55 32° SE
Aureole 1 Rocket 3.9 19:13:15 10° SSW 19:18:48 74° ESE 19:24:41 16° NNE
Cosmos 972 Rocket 4.5 19:15:07 10° N 19:19:15 43° NE 19:19:15 43° NE
Abrixas 4.2 19:17:39 10° W 19:19:25 32° W 19:19:25 32° W
Cosmos 1356 Rocket 4.0 19:16:44 10° SSW 19:20:38 53° WNW 19:23:02 22° N
ATLAS 5 CENTAUR R/B 3.3 19:19:18 10° NNW 19:23:48 29° NNE 19:23:48 29° NNE
Cosmos 2195 Rocket 4.4 19:20:31 10° S 19:26:28 58° E 19:28:24 41° NE
H-2A ROCKET BODY 4.4 19:12:59 10° WSW 19:28:44 25° SSW 19:33:03 15° SSE
Cosmos 1626 4.0 19:32:41 10° SW 19:36:02 30° WNW 19:38:10 18° NNW
FengYun 1-2 T 4.5 19:33:25 10° S 19:38:56 67° WSW 19:44:27 10° NNW
Cosmos 2219 Rocket 4.5 19:35:13 10° W 19:39:03 18° NW 19:42:54 10° N
Cosmos 773 Rocket 4.1 19:35:43 10° SSW 19:40:52 71° WNW 19:42:09 50° N
Cosmos 2333 Rocket 4.3 19:37:26 10° W 19:41:41 21° NW 19:45:57 10° N
USA 215 3.8 19:37:34 22° SSE 19:41:49 56° SW 19:48:16 10° WNW
Cosmos 1943 Rocket 3.7 19:37:03 10° NNW 19:39:28 22° N 19:39:28 22° N
Cosmos 1603 3.6 19:37:33 10° SSW 19:42:35 68° SSE 19:42:35 68° SSE
ATLAS 3B R/B 4.0 19:38:46 10° NNW 19:44:15 24° NNE 19:44:15 24° NNE
Resurs 01 Rocket 2.5 19:49:20 27° SSW 19:51:25 48° W 19:55:44 10° NNW
CZ-4C R/B 3.6 19:45:19 10° NNW 19:50:36 33° NNE 19:50:36 33° NNE
Cosmos 1627 Rocket 4.4 19:54:28 10° S 20:00:40 82° W 20:02:03 57° N
Lacrosse 5 3.5 19:56:14 10° NW 19:59:05 26° NNW 19:59:05 26° NNW
Cosmos 2369 Rocket 3.1 20:11:23 10° NNW 20:15:08 43° NW 20:15:08 43° NW
Lacrosse 4 Rocket 3.9 20:16:01 10° WNW 20:18:28 19° W 20:18:28 19° W
SL-16 R/B 4.0 20:18:19 10° WSW 20:23:02 26° NW 20:24:59 22° NNW
ALOS 4.5 20:21:22 10° SW 20:25:04 23° W 20:28:48 10° NW
CENTAUR R/B 4.5 20:20:39 10° NW 20:25:46 21° N 20:26:54 20° N
USA 229 DEB 4.0 20:22:59 10° SW 20:29:44 61° NW 20:29:44 61° NW
USA 229 4.0 20:23:04 10° SW 20:29:47 61° NW 20:29:47 61° NW
ATLAS 5 CENTAUR R/B 4.4 21:03:40 10° NW 21:05:22 20° NW 21:05:22 20° NW
